Location: Ozark
(37.5425°N, 88.7628°W)
Time: 06:28:47
(UTC+00:00)

Daily predictions for brighter satellites

Satellite Brightness Start Highest point End
(mag) Time Altitude Azimuth Time Altitude Azimuth Time Altitude Azimuth
STARLINK-60 3.0 12:03:24 17° NW 12:05:53 85° NE 12:09:14 10° SE
STARLINK 1038 3.7 12:02:17 11° WSW 12:06:08 54° NW 12:10:12 10° NE
Cosmos 1703 4.4 12:06:26 13° NW 12:08:58 22° W 12:12:02 10° SW
ADEOS Rocket 2.8 12:05:32 10° SSE 12:11:00 86° ENE 12:16:44 10° NNW
STARLINK 1046 3.9 12:07:10 10° WSW 12:11:11 49° NW 12:15:12 10° NE
ATLAS 3B R/B 2.8 12:04:42 10° NW 12:11:19 57° WSW 12:18:08 10° SSE
SMAP 3.3 12:08:11 10° NNE 12:12:51 77° ESE 12:17:30 10° S
COSMOS 2428 4.0 12:07:38 10° S 12:13:02 45° ESE 12:18:28 10° NE
STARLINK 1039 4.0 12:12:08 10° WSW 12:16:07 45° NW 12:20:07 10° NE
Nadezhda 3 Rocket 3.9 12:10:31 10° S 12:16:38 79° W 12:22:51 10° N
Cosmos 1821 Rocket 4.1 12:11:36 10° N 12:17:46 82° E 12:23:50 10° S
USA 215 3.4 12:13:41 10° SE 12:20:13 80° NE 12:26:46 10° NW
STARLINK 1045 4.1 12:17:11 10° WSW 12:21:06 41° NW 12:25:03 10° NE
Alouette 2 Rocket 3.5 12:19:02 10° SSW 12:23:41 56° W 12:27:19 10° N
Envisat 3.8 12:19:03 10° NNE 12:24:04 58° E 12:29:03 10° S
STARLINK 1050 4.3 12:22:24 10° WSW 12:26:15 36° NW 12:30:06 10° NNE
Cosmos 1452 Rocket 3.8 12:21:07 10° NNW 12:26:23 72° ENE 12:31:36 10° SSE
Cosmos 1340 Rocket 2.7 12:22:40 10° SSW 12:26:33 65° W 12:30:26 10° N
Cosmos 2084 Rocket 3.7 12:23:33 10° SSW 12:27:53 76° ESE 12:32:17 10° NE
CENTAUR R/B 3.9 12:23:02 10° NW 12:30:21 34° WSW 12:37:55 10° S
STARLINK 1055 4.4 12:27:27 10° W 12:31:14 34° NW 12:35:02 10° NNE
Lacrosse 5 rocket 3.9 12:29:04 10° N 12:31:37 15° NNE 12:34:06 10° ENE
STARLINK 1022 4.5 12:32:31 10° W 12:36:14 31° NNW 12:39:58 10° NNE
Cosmos 2278 Rocket 4.4 12:33:33 10° N 12:37:45 21° NE 12:41:56 10° ESE
Meteor 2-1 Rocket 4.2 12:32:07 10° SSW 12:37:46 78° W 12:43:20 10° N
Cosmos 2058 2.9 12:35:29 10° N 12:39:41 78° W 12:43:53 10° S
Cosmos 2322 Rocket 3.6 12:38:09 10° W 12:41:47 17° NW 12:45:27 10° NNW
USA 32 4.0 23:27:36 10° S 23:32:48 76° E 23:38:02 10° N
Envisat 3.0 23:31:30 10° SSE 23:36:29 62° ENE 23:41:31 10° N
Cosmos 1953 Rocket 3.7 23:33:24 10° S 23:37:46 54° E 23:42:09 10° NNE
Shenzhou-11 Module 3.2 23:36:13 10° WNW 23:38:33 25° N 23:40:53 10° NE
ISS -1.4 23:37:33 10° WNW 23:39:52 17° NNW 23:42:11 10° NNE
CZ-4C R/B 4.2 23:34:05 10° NW 23:41:25 51° WSW 23:49:26 10° S
H-2A R/B 3.7 23:37:43 10° S 23:41:28 55° W 23:45:19 10° NNW
Cosmos 1758 Rocket 3.8 23:37:38 10° SSW 23:41:55 74° W 23:46:15 10° N
COSMO-SKYMED 1 2.7 23:41:11 10° NNE 23:45:26 52° E 23:49:40 10° S
Cosmos 2341 Rocket 4.2 23:40:03 10° S 23:46:25 81° W 23:52:47 10° N
YAOGAN 6 2.7 23:45:15 10° SSE 23:48:50 54° ENE 23:52:25 10° N
SL-16 R/B 2.4 23:45:53 10° N 23:51:23 49° ENE 23:56:50 10° SE
Meteor 2-10 Rocket 3.5 23:48:12 10° N 23:53:21 59° E 23:58:18 10° SSE
CZ-4 R/B 1.9 23:50:22 10° SE 23:54:05 36° ENE 23:57:55 10° N
